Time,TemperatureF,DewpointF,PressureIn,WindDirection,WindDirectionDegrees,WindSpeedMPH,WindSpeedGustMPH,Humidity,HourlyPrecipIn,Conditions,Clouds,dailyrainin,SolarRadiationWatts/m^2,SoftwareType,DateUTC
2013-01-16 00:12:00,17.0,13.0,-100.00,SSW,198,6.0,10.0,84,0.00,,,0.00,0.000000,,2013-01-16 05:12:00,
2013-01-16 00:23:00,17.0,13.0,-100.00,SSW,198,6.0,10.0,84,0.00,,,0.00,0.000000,,2013-01-16 05:23:00,
2013-01-16 00:33:00,17.0,13.0,-100.00,SSW,198,6.0,10.0,84,0.00,,,0.00,0.000000,,2013-01-16 05:33:00,
2013-01-16 00:42:00,17.0,13.0,-100.00,SSW,198,6.0,10.0,84,0.00,,,0.00,0.000000,,2013-01-16 05:42:00,
2013-01-16 01:12:00,16.0,13.0,-100.00,SSW,209,6.0,9.0,87,0.00,,,0.00,0.000000,,2013-01-16 06:12:00,
2013-01-16 01:22:00,16.0,13.0,-100.00,SSW,209,6.0,9.0,87,0.00,,,0.00,0.000000,,2013-01-16 06:22:00,
2013-01-16 01:33:00,16.0,13.0,-100.00,SSW,209,6.0,9.0,87,0.00,,,0.00,0.000000,,2013-01-16 06:33:00,
2013-01-16 01:43:00,16.0,13.0,-100.00,SSW,209,6.0,9.0,87,0.00,,,0.00,0.000000,,2013-01-16 06:43:00,
2013-01-16 02:12:00,16.0,13.0,-100.00,SW,219,6.0,10.0,87,0.00,,,0.00,1.000000,,2013-01-16 07:12:00,
2013-01-16 02:22:00,16.0,13.0,-100.00,SW,219,6.0,10.0,87,0.00,,,0.00,1.000000,,2013-01-16 07:22:00,
2013-01-16 02:33:00,16.0,13.0,-100.00,SW,219,6.0,10.0,87,0.00,,,0.00,1.000000,,2013-01-16 07:33:00,
2013-01-16 02:42:00,16.0,13.0,-100.00,SW,219,6.0,10.0,87,0.00,,,0.00,1.000000,,2013-01-16 07:42:00,
2013-01-16 03:12:00,15.0,12.0,-100.00,SSW,210,5.0,9.0,87,0.00,,,0.00,1.000000,,2013-01-16 08:12:00,
2013-01-16 03:23:00,15.0,12.0,-100.00,SSW,210,5.0,9.0,87,0.00,,,0.00,1.000000,,2013-01-16 08:23:00,
2013-01-16 03:32:00,15.0,12.0,-100.00,SSW,210,5.0,9.0,87,0.00,,,0.00,1.000000,,2013-01-16 08:32:00,
2013-01-16 03:42:00,15.0,12.0,-100.00,SSW,210,5.0,9.0,87,0.00,,,0.00,1.000000,,2013-01-16 08:42:00,
2013-01-16 04:12:00,15.0,12.0,-100.00,SSW,200,8.0,11.0,87,0.00,,,0.00,0.000000,,2013-01-16 09:12:00,
2013-01-16 04:22:00,15.0,12.0,-100.00,SSW,200,8.0,11.0,87,0.00,,,0.00,0.000000,,2013-01-16 09:22:00,
2013-01-16 04:32:00,15.0,12.0,-100.00,SSW,200,8.0,11.0,87,0.00,,,0.00,0.000000,,2013-01-16 09:32:00,
2013-01-16 04:42:00,15.0,12.0,-100.00,SSW,200,8.0,11.0,87,0.00,,,0.00,0.000000,,2013-01-16 09:42:00,
2013-01-16 05:12:00,14.0,11.0,-100.00,SSW,210,8.0,12.0,87,0.00,,,0.00,1.000000,,2013-01-16 10:12:00,
2013-01-16 05:22:00,14.0,11.0,-100.00,SSW,210,8.0,12.0,87,0.00,,,0.00,1.000000,,2013-01-16 10:22:00,
2013-01-16 05:32:00,14.0,11.0,-100.00,SSW,210,8.0,12.0,87,0.00,,,0.00,1.000000,,2013-01-16 10:32:00,
2013-01-16 05:43:00,14.0,11.0,-100.00,SSW,210,8.0,12.0,87,0.00,,,0.00,1.000000,,2013-01-16 10:43:00,
2013-01-16 06:12:00,16.0,13.0,-100.00,SSW,204,8.0,12.0,86,0.00,,,0.00,0.000000,,2013-01-16 11:12:00,
2013-01-16 06:23:00,16.0,13.0,-100.00,SSW,204,8.0,12.0,86,0.00,,,0.00,0.000000,,2013-01-16 11:23:00,
2013-01-16 06:33:00,16.0,13.0,-100.00,SSW,204,8.0,12.0,86,0.00,,,0.00,0.000000,,2013-01-16 11:33:00,
2013-01-16 06:43:00,16.0,13.0,-100.00,SSW,204,8.0,12.0,86,0.00,,,0.00,0.000000,,2013-01-16 11:43:00,
2013-01-16 07:13:00,16.0,12.0,-100.00,SSW,204,7.0,12.0,85,0.00,,,0.00,1.000000,,2013-01-16 12:13:00,
2013-01-16 07:22:00,16.0,12.0,-100.00,SSW,204,7.0,12.0,85,0.00,,,0.00,1.000000,,2013-01-16 12:22:00,
2013-01-16 07:33:00,16.0,12.0,-100.00,SSW,204,7.0,12.0,85,0.00,,,0.00,1.000000,,2013-01-16 12:33:00,
2013-01-16 07:43:00,16.0,12.0,-100.00,SSW,204,7.0,12.0,85,0.00,,,0.00,1.000000,,2013-01-16 12:43:00,
2013-01-16 08:13:00,16.0,12.0,-100.00,SW,215,10.0,16.0,84,0.00,,,0.00,0.000000,,2013-01-16 13:13:00,
2013-01-16 08:23:00,16.0,12.0,-100.00,SW,215,10.0,16.0,84,0.00,,,0.00,0.000000,,2013-01-16 13:23:00,
2013-01-16 08:33:00,16.0,12.0,-100.00,SW,215,10.0,16.0,84,0.00,,,0.00,0.000000,,2013-01-16 13:33:00,
2013-01-16 08:43:00,16.0,12.0,-100.00,SW,215,10.0,16.0,84,0.00,,,0.00,0.000000,,2013-01-16 13:43:00,
2013-01-16 09:12:00,16.0,12.0,-100.00,SSW,207,9.0,15.0,85,0.00,,,0.00,11.000000,,2013-01-16 14:12:00,
2013-01-16 09:23:00,16.0,12.0,-100.00,SSW,207,9.0,15.0,85,0.00,,,0.00,11.000000,,2013-01-16 14:23:00,
2013-01-16 09:33:00,16.0,12.0,-100.00,SSW,207,9.0,15.0,85,0.00,,,0.00,11.000000,,2013-01-16 14:33:00,
2013-01-16 09:43:00,16.0,12.0,-100.00,SSW,207,9.0,15.0,85,0.00,,,0.00,11.000000,,2013-01-16 14:43:00,
2013-01-16 10:12:00,20.0,15.0,-100.00,SSW,211,10.0,17.0,80,0.00,,,0.00,160.000000,,2013-01-16 15:12:00,
2013-01-16 10:23:00,20.0,15.0,-100.00,SSW,211,10.0,17.0,80,0.00,,,0.00,160.000000,,2013-01-16 15:23:00,
2013-01-16 10:33:00,20.0,15.0,-100.00,SSW,211,10.0,17.0,80,0.00,,,0.00,160.000000,,2013-01-16 15:33:00,
2013-01-16 10:43:00,20.0,15.0,-100.00,SSW,211,10.0,17.0,80,0.00,,,0.00,160.000000,,2013-01-16 15:43:00,
2013-01-16 11:12:00,24.0,18.0,-100.00,SW,214,12.0,22.0,78,0.00,,,0.00,282.000000,,2013-01-16 16:12:00,
2013-01-16 11:23:00,24.0,18.0,-100.00,SW,214,12.0,22.0,78,0.00,,,0.00,282.000000,,2013-01-16 16:23:00,
2013-01-16 11:33:00,24.0,18.0,-100.00,SW,214,12.0,22.0,78,0.00,,,0.00,282.000000,,2013-01-16 16:33:00,
2013-01-16 11:43:00,24.0,18.0,-100.00,SW,214,12.0,22.0,78,0.00,,,0.00,282.000000,,2013-01-16 16:43:00,
2013-01-16 12:12:00,27.0,19.0,-100.00,SW,228,11.0,22.0,70,0.00,,,0.00,152.000000,,2013-01-16 17:12:00,
2013-01-16 12:23:00,27.0,19.0,-100.00,SW,228,11.0,22.0,70,0.00,,,0.00,152.000000,,2013-01-16 17:23:00,
2013-01-16 12:33:00,27.0,19.0,-100.00,SW,228,11.0,22.0,70,0.00,,,0.00,152.000000,,2013-01-16 17:33:00,
2013-01-16 12:44:00,27.0,19.0,-100.00,SW,228,11.0,22.0,70,0.00,,,0.00,152.000000,,2013-01-16 17:44:00,
2013-01-16 13:13:00,29.0,18.0,-100.00,SW,227,13.0,25.0,63,0.00,,,0.00,145.000000,,2013-01-16 18:13:00,
2013-01-16 13:23:00,29.0,18.0,-100.00,SW,227,13.0,25.0,63,0.00,,,0.00,145.000000,,2013-01-16 18:23:00,
2013-01-16 13:33:00,29.0,18.0,-100.00,SW,227,13.0,25.0,63,0.00,,,0.00,145.000000,,2013-01-16 18:33:00,
2013-01-16 13:43:00,29.0,18.0,-100.00,SW,227,13.0,25.0,63,0.00,,,0.00,145.000000,,2013-01-16 18:43:00,
2013-01-16 14:13:00,30.0,18.0,-100.00,SW,223,14.0,29.0,61,0.00,,,0.00,182.000000,,2013-01-16 19:13:00,
2013-01-16 14:23:00,30.0,18.0,-100.00,SW,223,14.0,29.0,61,0.00,,,0.00,182.000000,,2013-01-16 19:23:00,
2013-01-16 14:33:00,30.0,18.0,-100.00,SW,223,14.0,29.0,61,0.00,,,0.00,182.000000,,2013-01-16 19:33:00,
2013-01-16 14:43:00,30.0,18.0,-100.00,SW,223,14.0,29.0,61,0.00,,,0.00,182.000000,,2013-01-16 19:43:00,
2013-01-16 15:12:00,30.0,21.0,-100.00,WSW,250,14.0,29.0,69,0.00,,,0.00,160.000000,,2013-01-16 20:12:00,
2013-01-16 15:23:00,30.0,21.0,-100.00,WSW,250,14.0,29.0,69,0.00,,,0.00,160.000000,,2013-01-16 20:23:00,
2013-01-16 15:33:00,30.0,21.0,-100.00,WSW,250,14.0,29.0,69,0.00,,,0.00,160.000000,,2013-01-16 20:33:00,
2013-01-16 15:43:00,30.0,21.0,-100.00,WSW,250,14.0,29.0,69,0.00,,,0.00,160.000000,,2013-01-16 20:43:00,
2013-01-16 16:12:00,31.0,23.0,-100.00,WSW,248,14.0,24.0,72,0.00,,,0.00,88.000000,,2013-01-16 21:12:00,
2013-01-16 16:23:00,31.0,23.0,-100.00,WSW,248,14.0,24.0,72,0.00,,,0.00,88.000000,,2013-01-16 21:23:00,
2013-01-16 16:33:00,31.0,23.0,-100.00,WSW,248,14.0,24.0,72,0.00,,,0.00,88.000000,,2013-01-16 21:33:00,
2013-01-16 16:43:00,31.0,23.0,-100.00,WSW,248,14.0,24.0,72,0.00,,,0.00,88.000000,,2013-01-16 21:43:00,
2013-01-16 17:12:00,31.0,23.0,-100.00,WSW,258,11.0,23.0,73,0.00,,,0.00,28.000000,,2013-01-16 22:12:00,
2013-01-16 17:23:00,31.0,23.0,-100.00,WSW,258,11.0,23.0,73,0.00,,,0.00,28.000000,,2013-01-16 22:23:00,
2013-01-16 17:33:00,31.0,23.0,-100.00,WSW,258,11.0,23.0,73,0.00,,,0.00,28.000000,,2013-01-16 22:33:00,
2013-01-16 17:43:00,31.0,23.0,-100.00,WSW,258,11.0,23.0,73,0.00,,,0.00,28.000000,,2013-01-16 22:43:00,
2013-01-16 18:12:00,31.0,23.0,-100.00,West,270,12.0,25.0,73,0.00,,,0.00,3.000000,,2013-01-16 23:12:00,
2013-01-16 18:23:00,31.0,23.0,-100.00,West,270,12.0,25.0,73,0.00,,,0.00,3.000000,,2013-01-16 23:23:00,
2013-01-16 18:33:00,31.0,23.0,-100.00,West,270,12.0,25.0,73,0.00,,,0.00,3.000000,,2013-01-16 23:33:00,
2013-01-16 18:43:00,31.0,23.0,-100.00,West,270,12.0,25.0,73,0.00,,,0.00,3.000000,,2013-01-16 23:43:00,
2013-01-16 19:12:00,30.0,23.0,-100.00,WNW,286,13.0,24.0,75,0.00,,,0.00,1.000000,,2013-01-17 00:12:00,
2013-01-16 19:22:00,30.0,23.0,-100.00,WNW,286,13.0,24.0,75,0.00,,,0.00,1.000000,,2013-01-17 00:22:00,
2013-01-16 19:32:00,30.0,23.0,-100.00,WNW,286,13.0,24.0,75,0.00,,,0.00,1.000000,,2013-01-17 00:32:00,
2013-01-16 19:42:00,30.0,23.0,-100.00,WNW,286,13.0,24.0,75,0.00,,,0.00,1.000000,,2013-01-17 00:42:00,
2013-01-16 20:12:00,30.0,24.0,-100.00,West,279,7.0,18.0,79,0.00,,,0.00,1.000000,,2013-01-17 01:12:00,
2013-01-16 20:22:00,30.0,24.0,-100.00,West,279,7.0,18.0,79,0.00,,,0.00,1.000000,,2013-01-17 01:22:00,
2013-01-16 20:33:00,30.0,24.0,-100.00,West,279,7.0,18.0,79,0.00,,,0.00,1.000000,,2013-01-17 01:33:00,
2013-01-16 20:42:00,30.0,24.0,-100.00,West,279,7.0,18.0,79,0.00,,,0.00,1.000000,,2013-01-17 01:42:00,
2013-01-16 21:12:00,30.0,24.0,-100.00,West,261,9.0,15.0,77,0.00,,,0.00,1.000000,,2013-01-17 02:12:00,
2013-01-16 21:22:00,30.0,24.0,-100.00,West,261,9.0,15.0,77,0.00,,,0.00,1.000000,,2013-01-17 02:22:00,
2013-01-16 21:32:00,30.0,24.0,-100.00,West,261,9.0,15.0,77,0.00,,,0.00,1.000000,,2013-01-17 02:32:00,
2013-01-16 21:43:00,30.0,24.0,-100.00,West,261,9.0,15.0,77,0.00,,,0.00,1.000000,,2013-01-17 02:43:00,
2013-01-16 22:12:00,29.0,23.0,-100.00,West,268,9.0,16.0,77,0.00,,,0.00,1.000000,,2013-01-17 03:12:00,
2013-01-16 22:22:00,29.0,23.0,-100.00,West,268,9.0,16.0,77,0.00,,,0.00,1.000000,,2013-01-17 03:22:00,
2013-01-16 22:33:00,29.0,23.0,-100.00,West,268,9.0,16.0,77,0.00,,,0.00,1.000000,,2013-01-17 03:33:00,
2013-01-16 22:43:00,29.0,23.0,-100.00,West,268,9.0,16.0,77,0.00,,,0.00,1.000000,,2013-01-17 03:43:00,
2013-01-16 23:12:00,28.0,21.0,-100.00,NNW,334,11.0,22.0,75,0.00,,,0.00,1.000000,,2013-01-17 04:12:00,
2013-01-16 23:23:00,28.0,21.0,-100.00,NNW,334,11.0,22.0,75,0.00,,,0.00,1.000000,,2013-01-17 04:23:00,
2013-01-16 23:33:00,28.0,21.0,-100.00,NNW,334,11.0,22.0,75,0.00,,,0.00,1.000000,,2013-01-17 04:33:00,
2013-01-16 23:42:00,28.0,21.0,-100.00,NNW,334,11.0,22.0,75,0.00,,,0.00,1.000000,,2013-01-17 04:42:00,